World > North America > United States > South Dakota > Blunt  

Blunt, SD Hourly Weather Updates

Feedback E-mail the Weather

Quick Clicks

Blunt, SD Weather Maps

°F °C°F °C
Blunt Weather Map
UTC Time: 4/24/2024, 15:00
Your Time:

Blunt, SD Regional Weather

Expires:202404241500;;295423
ASUS43 KFSD 241410
RWRSD 

WEATHER ROUNDUP FOR SOUTH DAKOTA
NATIONAL WEATHER SERVICE SIOUX FALLS SD
900 AM CDT WED APR 24 2024

NOTE: "FAIR" INDICATES FEW OR NO CLOUDS BELOW 12,000 FEET WITH NO
SIGNIFICANT WEATHER AND/OR OBSTRUCTIONS TO VISIBILITY.



SDZ012>016-024>037-041>051-057-063-072>074-241500-
SOUTHWEST AND SOUTH CENTRAL SOUTH DAKOTA
  
CITY           SKY/WX    TMP DP  RH WIND       PRES   REMARKS
RAPID CTY ARPT SUNNY     44  32  62 SE7       30.05F TC   7           
PIERRE         MOSUNNY   45  36  70 SE8       30.15R TC   7           
CUSTER         SUNNY     43  26  51 S6        30.06F TC   6           
ELLSWORTH AFB  SUNNY     46  31  56 S12       30.02F TC   8           
PHILIP         MOSUNNY   39  33  79 E3        30.11F TC   4           
PINE RIDGE     MOSUNNY   51  32  48 VRB6      30.08F TC  11           
SPEARFISH      SUNNY     46  28  49 CALM      30.01S TC   8           
WINNER         MOSUNNY   53  32  44 MISG      30.16F TC  12           
$$
 

SKY/WX - Weather  TMP - Temperature  DP - Dew Point  RH - Humidity
WIND - Wind Direction/Speed PRES - Barometric Pressure VSB - Visibility
WCI - Wind Chill Index E13G22 Wind - East Wind 13 mph/Gusts of 22 mph

Trending Headlines

Trending Entertainment Headlines

Blunt Radar Loop

Use the map search tool if you want to place a location marker on the radar map...

Blunt Quick Facts

National Two Day Weather Forecast


E-mail the Blunt Weather Forecast

Voice your opinion or tell us about page issues...